Location: Croagnes
(43.9363°N, 5.3265°E)
Time: 03:09:03
(UTC+00:00)

SeaSat 1 - Pass Details

Date: 06 June 2020
Orbit: 744 x 747 km, 108.0° (Epoch: 09 July)

Event Time Altitude Azimuth Distance (km) Brightness Sun altitude
Rises 22:59:09 0° 26° (NNE) 3,198 6.6 -22.7°
Reaches altitude 10° 23:01:26 10° 26° (NNE) 2,271 5.7 -22.8°
Maximum altitude 23:06:23 87° 298° (WNW) 754 2.4 -22.9°
Enters shadow 23:07:34 53° 213° (SSW) 910 2.5 -22.9°
